This demonstration page uses our WeatherBlox Daily Observations layout. Learn more.

Left ArrowRight Arrow

Hourly Observations for April 6, 2015

Temp ( °F °C ) Dew Point ( °F °C ) Humidity (%) Winds ( mph kmh ) Pressure ( in mb ) Visibility ( mi km ) Precip ( " mm )
12:50 am 00:50 Cloudy 32 0 27 -3 80 80 E 15 24 30.06 1018 10 16 0.00 0.00
12:53 am 00:53 Cloudy 32 0 27 -2.8 82 82 E 15 24 30.01 1016 10 16 0.00 0.00
1:53 am 01:53 Cloudy 31 -0.6 26 -3.3 82 82 E 18 30 30.00 1016 10 16 0.00 0.00
2:53 am 02:53 Cloudy 30 -1.1 25 -3.9 82 82 E 17 28 30.01 1016 10 16 0.00 0.00
3:05 am 03:05 Cloudy 30 -1.1 25 -3.9 82 82 E 15 24 30.06 1018 10 16 0.00 0.00
3:53 am 03:53 Cloudy 30 -1.1 26 -3.3 85 85 E 18 30 30.01 1016 10 16 0.00 0.00
4:53 am 04:53 Cloudy 30 -1.1 26 -3.3 85 85 E 16 26 29.99 1016 10 16 0.00 0.00
5:53 am 05:53 Cloudy 29 -1.7 25 -3.9 85 85 E 17 28 29.98 1015 10 16 0.00 0.00
6:53 am 06:53 Cloudy with Light Snow 28 -2.2 25 -3.9 88 88 E 17 28 29.98 1015 4 6 0.00 0.03
7:01 am 07:01 Cloudy with Light Snow 28 -2.2 25 -3.9 88 88 E 17 28 30.03 1017 2 3 0.00 0.03
7:22 am 07:22 Cloudy with Light Snow 28 -2 25 -4 86 86 E 18 30 30.03 1017 3 5 0.00 0.00
7:53 am 07:53 Cloudy with Light Snow 28 -2.2 25 -3.9 88 88 E 18 30 29.98 1015 6 10 0.01 0.25
8:53 am 08:53 Cloudy 29 -1.7 25 -3.9 85 85 E 20 31 29.98 1015 10 16 0.00 0.03
9:13 am 09:13 Cloudy with Light Snow 29 -1.7 25 -3.9 85 85 E 16 26 30.03 1017 2 3 0.00 0.03
9:20 am 09:20 Cloudy with Light Snow 28 -2 25 -4 86 86 E 17 28 30.03 1017 2 2 0.00 0.00
9:29 am 09:29 Cloudy with Light Snow 29 -1.7 26 -3.3 89 89 E 16 26 30.03 1017 1 2 0.00 0.03
9:47 am 09:47 Cloudy with Light Snow 28 -2 27 -3 93 93 E 15 24 30.03 1017 2 2 0.00 0.03
9:53 am 09:53 Cloudy with Light Snow 29 -1.7 27 -2.8 92 92 E 16 26 29.99 1016 2 2 0.00 0.03
10:04 am 10:04 Cloudy with Light Snow 30 -1 27 -3 86 86 E 16 26 30.03 1017 1 2 0.00 0.00
10:13 am 10:13 Cloudy with Light Snow 30 -1.1 27 -2.8 88 88 E 18 30 30.03 1017 2 2 0.00 0.03
10:24 am 10:24 Windy with Snow Likely 30 -1 27 -3 86 86 E 20 31 30.03 1017 2 3 0.00 0.00
10:38 am 10:38 Cloudy with Light Snow 30 -1 27 -3 86 86 E 18 30 30.03 1017 3 5 0.00 0.00
10:53 am 10:53 Cloudy with Light Snow 31 -0.6 28 -2.2 89 89 E 18 30 29.98 1015 5 8 0.00 0.03
11:32 am 11:32 Windy with Snow Likely 34 1 28 -2 81 81 E 23 37 30.00 1016 9 14 0.00 0.00
11:53 am 11:53 Cloudy 34 1.1 29 -1.7 82 82 E 23 37 29.96 1015 10 16 0.00 0.03
12:53 pm 12:53 Cloudy 35 1.7 28 -2.2 76 76 E 24 39 29.94 1014 10 16 0.00 0.00
1:53 pm 13:53 Cloudy 36 2.2 28 -2.2 73 73 E 25 41 29.93 1013 10 16 0.00 0.00
2:53 pm 14:53 Cloudy 36 2.2 28 -2.2 73 73 E 26 43 29.92 1013 10 16 0.00 0.00
3:53 pm 15:53 Cloudy 36 2.2 29 -1.7 76 76 E 24 39 29.91 1013 10 16 0.00 0.00
4:53 pm 16:53 Cloudy 35 1.7 29 -1.7 78 78 E 21 33 29.91 1013 10 16 0.00 0.00
5:53 pm 17:53 Cloudy 35 1.7 28 -2.2 76 76 E 20 31 29.93 1014 10 16 0.00 0.00
6:53 pm 18:53 Cloudy 34 1.1 28 -2.2 79 79 E 17 28 29.93 1014 10 16 0.00 0.00
7:53 pm 19:53 Cloudy with Light Snow 33 0.6 28 -2.2 82 82 E 15 24 29.95 1014 5 8 0.00 0.03
7:58 pm 19:58 Cloudy with Light Snow 34 1 28 -2 81 81 E 15 24 29.97 1015 3 4 0.00 0.00
8:17 pm 20:17 Cloudy with Light Snow 32 0 30 -1.1 92 92 E 13 20 29.97 1015 2 3 0.00 0.03
8:53 pm 20:53 Cloudy with Light Snow 31 -0.6 30 -1.1 96 96 E 13 20 29.96 1015 2 3 0.01 0.25
9:00 pm 21:00 Cloudy with Light Snow 30 -1 30 -1 100 100 E 12 19 30.00 1016 2 3 0.00 0.00
9:32 pm 21:32 Cloudy with Light Snow 30 -1 30 -1 100 100 E 12 19 30.00 1016 3 4 0.00 0.00
9:38 pm 21:38 Cloudy with Light Snow 30 -1 30 -1 100 100 E 13 20 30.00 1016 3 5 0.00 0.00
9:53 pm 21:53 Cloudy with Light Snow 31 -0.6 30 -1.1 96 96 E 12 19 29.96 1015 5 8 0.01 0.25
10:53 pm 22:53 Cloudy 31 -0.6 30 -1.1 96 96 E 7 11 29.98 1015 9 14 0.00 0.03
11:11 pm 23:11 Cloudy 31 -0.6 31 -0.6 100 100 ENE 8 13 30.03 1017 9 14 0.00 0.00
11:41 pm 23:41 Cloudy 31 -0.6 31 -0.6 100 100 ENE 6 9 30.03 1017 10 16 0.00 0.00
11:53 pm 23:53 Cloudy 31 -0.6 31 -0.6 100 100 ENE 5 7 29.98 1015 10 16 0.00 0.00

Powered by AerisWeather